RAVAN

Last updated on Mon Sep 15 2025 00:03:48 GMT+0000 (Coordinated Universal Time)

1 41849U 16067B 25256.81894744 .00014631 00000+0 45932-3 0 9991 2 41849 98.0328 113.9145 0007052 257.4667 102.5785 15.33121574485077
UTC large
Height (km)
Speed (km/s)
/
Latitude / Longitude
Inclination (degrees)
Orbital Period (minutes)
Azimuth
Elevation
Range (km)
Doppler Factor

Next 0 passes for location: London (51.5072 / 0.1276)

Sorry there are no passes over London.